Regional Weather Roundup
Issued by NWS

Home | Current Version | Previous Version | Graphics & Text | Print | Product List | Glossary On
Versions: 1 2 3 4 5 6 7 8 9 10 11 12 13 14 15 16 17 18 19 20 21 22 23 24 25 26 27 28 29 30 31 32 33 34 35 36 37 38 39 40 41 42 43 44 45 46 47 48 49 50
000
ASUS43 KLSX 011010
RWRMO

WEATHER SUMMARY FOR MISSOURI
NATIONAL WEATHER SERVICE SPRINGFIELD MO
500 AM CDT SUN MAY 01 2016

NOTE: "FAIR" INDICATES FEW OR NO CLOUDS BELOW 12,000 FEET WITH NO
       SIGNIFICANT WEATHER AND/OR OBSTRUCTIONS TO VISIBILITY.
       CURRENT SKY AND/OR WEATHER CONDITIONS ARE NOT AVAILABLE FOR
       CHILLICOTHE AND FARMINGTON.

MOZ001>031-035>038-043-044-053-054-011100-
...NORTHERN AND WESTERN MISSOURI...

CITY           SKY/WX    TMP DP  RH WIND       PRES   REMARKS
KANSAS CTY INT CLOUDY    51  47  86 W5        29.89R
KANSAS C DTWN  CLOUDY    54  47  77 SW6       29.89R
LEE`S SUMMIT   CLEAR     50  46  86 SW6       29.90R
ST JOSEPH      CLOUDY    53  50  89 SW7       29.89S
CHILLICOTHE      N/A     56  54  93 N3        29.90R
KIRKSVILLE     FOG       48  47  96 NE7       29.91R VSB 3/4

$$
MOZ066>068-077>081-088>096-101>105-011100-
...SOUTHWEST MISSOURI...

CITY           SKY/WX    TMP DP  RH WIND       PRES   REMARKS
SPRINGFIELD    CLEAR     50  45  83 NW5       29.92R
JOPLIN         CLEAR     47  45  93 SW3       29.93F

$$
MOZ032>034-039>042-045>050-055>058-069>072-011100-
...CENTRAL MISSOURI...

CITY           SKY/WX    TMP DP  RH WIND       PRES   REMARKS
COLUMBIA       CLOUDY    55  54  96 SW3       29.87R
JEFFERSON CITY MOCLDY    55  53  93 CALM      29.87R
ROLLA          CLEAR     53  50  89 W7        29.87R
SEDALIA        CLEAR     53  48  83 W6        29.90R
WHITEMAN AFB   PTCLDY    51  50  99 W5        29.88R
WARRENSBURG    CLEAR     50  45  81 CALM      29.89S
OSAGE BEACH    CLEAR     52  43  71 W5        29.90R

$$
MOZ051-052-059>065-011100-
...EAST CENTRAL MISSOURI...

CITY           SKY/WX    TMP DP  RH WIND       PRES   REMARKS
ST LOUIS INTL  MOCLDY    59  56  89 CALM      29.86R
SPIRIT OF STL  CLEAR     55  55 100 CALM      29.85S FOG
ST CHARLES     PTCLDY    53  53 100 N5        29.85S FOG

$$
MOZ072>076-082>087-097>100-106>115-011100-
...SOUTH CENTRAL AND SOUTHEAST MISSOURI...

CITY           SKY/WX    TMP DP  RH WIND       PRES   REMARKS
CAPE GIRARDEAU MOCLDY    63  62  97 NE7       29.85F
FARMINGTON     CLOUDY    60  59  96 S3        29.87S
POPLAR BLUFF   PTCLDY    61  60  97 SE5       29.86R
WEST PLAINS    FOG       53  51  93 CALM      29.90S VSB 1/4

$$




USA.gov is the U.S. government's official web portal to all federal, state and local government web resources and services.